Regional Weather Roundup
Issued by NWS Cleveland, OH

Home | Current Version | Previous Version | Text Only | Print | Product List | Glossary Off
Versions: 1 2 3 4 5 6 7 8 9 10 11 12 13 14 15 16 17 18 19 20 21 22 23 24 25 26 27 28 29 30 31 32 33 34 35 36 37 38 39 40 41 42 43 44 45 46 47 48 49 50

047
ASUS41 KCLE 051912
RWRCLE
OHIO REGIONAL WEATHER ROUNDUP
NATIONAL WEATHER SERVICE WILMINGTON, OH
300 PM EDT THU MAY 05 2016

NOTE: "FAIR" INDICATES FEW OR NO CLOUDS BELOW 12,000 FEET WITH NO
SIGNIFICANT WEATHER AND/OR OBSTRUCTIONS TO VISIBILITY.

OHZ001>008-015>018-024>027-034-035-043-044-052000-
   NORTHWEST OHIO

CITY           SKY/WX    TMP DP  RH WIND       PRES   REMARKS
DEFIANCE       PTSUNNY   67  42  40 N12       29.86S
FINDLAY        FAIR      63  41  44 N21G28    29.83S
TOLEDO EXPRESS PTSUNNY   65  39  38 NE12      29.84S
TOLEDO EXEC    FAIR      64  41  42 NE14G22   29.85S
LIMA           FAIR      61  49  64 NE14G26   29.84S
$$

OHZ009>014-019>023-028>033-038-089-052000-
   NORTHEAST OHIO

CITY           SKY/WX    TMP DP  RH WIND       PRES   REMARKS
CLE-HOPKINS    PTSUNNY   57  48  72 N14G21    29.84S
CLE-LAKEFRONT  FAIR      54  48  80 N9        29.82R
CUY CO. ARPT   CLOUDY    57  48  72 NE14      29.82R
LORAIN-ELYRIA  FAIR      57  47  69 E14       29.82F
ASHTABULA      CLOUDY    55  47  74 N14G25    29.79S
AKRON-CANTON   LGT RAIN  58  47  66 NW15G21   29.74F
WOOSTER        PTSUNNY   58  50  75 N21G26    29.78R
MANSFIELD      CLOUDY    53  48  83 N13G22    29.81R
YOUNGSTOWN     PTSUNNY   62  48  60 N15G26    29.73S
$$

OHZ042-051>053-060>062-070>072-077>081-052000-
  SOUTHWEST OHIO

CITY           SKY/WX    TMP DP  RH WIND       PRES   REMARKS
CINC-COVINGTON CLOUDY    52  43  71 N14       29.87R
CINC-LUNKEN    CLOUDY    51  45  79 NW12      29.87S
HAMILTON       CLOUDY    53  46  77 NW9       29.88S
DAYTON         CLOUDY    55  47  74 N10       29.85S
WRIGHT-PAT AFB CLOUDY    54  48  81 N6        29.84S
DAYTON GENERAL CLOUDY    53  45  74 N6        29.84F
WILMINGTON     CLOUDY    49  44  83 NW12      29.83S
$$

OHZ036-037-039>041-045>050-054>059-063>069-073>076-082>088-052000-
  CENTRAL AND SOUTHEAST OHIO

CITY           SKY/WX    TMP DP  RH WIND       PRES   REMARKS
COLUMBUS       CLOUDY    55  48  77 NW13      29.79S
OSU AIRPORT    CLOUDY    54  47  77 N10       29.81R
BOLTON FIELD   CLOUDY    54  48  82 NW12      29.81S
RICKENBACK AFB CLOUDY    54  47  77 NW9       29.80S
NEWARK         CLOUDY    60  47  61 N7        29.77S
MARION         CLOUDY    55  49  80 N17G24    29.83R
LANCASTER      CLOUDY    55  47  74 W9        29.79S
ZANESVILLE     CLOUDY    59  47  64 NW10      29.75S
NEW PHILLY     CLOUDY    61  46  57 NW9       29.73F
$$




USA.gov is the U.S. government's official web portal to all federal, state and local government web resources and services.